カタログに戻る

JILIN-1-03

運用中科学SSO
NORAD 41914·PAYLOAD·🇨🇳 China

打ち上げ Jan 9, 2017 から Jiuquan Satellite Launch Center

Loading…

次のパス (今後24時間)

TLE

最新Source: Space-Track

元期: Sep 14, 2026, 22:24 UTC

1 41914U 17002B   26257.93341839  .00013165  00000-0  29476-3 0  9998
2 41914  97.1977 263.8963 0005114 182.1063 178.0165 15.43565194535699

AllMySatでJILIN-1-03をリアルタイム追跡

Download on the App Store